Weather History for Pinedale, WY

Change the Weather History Date:

Tuesday, October 9, 2012

  Actual Average (KBPI) Record (KBPI)
Temperature  
Mean Temperature 40 °F 41 °F  
Max Temperature 59 °F 59 °F 75 °F (2003)
Min Temperature 21 °F 24 °F 5 °F (1987)
Degree Days  
Heating Degree Days 25 24  
Month to date heating degree days 203  
Since 1 July heating degree days 954  
Cooling Degree Days 0 0  
Month to date cooling degree days 0  
Year to date cooling degree days 35  
Moisture  
Dew Point 14 °F    
Average Humidity 40    
Maximum Humidity 60    
Minimum Humidity 21    
Precipitation  
Precipitation 0.00 in 0.02 in 0.37 in (1993)
Month to date precipitation 0.20  
Year to date precipitation 5.64  
Sea Level Pressure  
Sea Level Pressure 30.09 in    
Wind  
Wind Speed 7 mph (WNW)    
Max Wind Speed 20 mph    
Max Gust Speed 28 mph    
Visibility 10 miles    
Events      
T = Trace of Precipitation, MM = Missing Value Source: NWS Daily Summary

Daily Weather History Graph

Daily Weather History Graph

Search for Another Location

Airport:

Trip Planner

Search our weather history database for the weather conditions in past years. The results will help you decide how hot, cold, wet, or windy it might be!

Date:

Astronomy

Oct. 09, 2012 Rise Set
Actual Time 7:26 AM MDT 6:45 PM MDT
Civil Twilight 6:57 AM MDT 7:14 PM MDT
Nautical Twilight 6:25 AM MDT 7:46 PM MDT
Astronomical Twilight 5:52 AM MDT 8:19 PM MDT
Moon 12:57 AM MDT (10/9) 3:22 PM MDT (10/9)
Length of Visible Light 12h 16m
Length of Day
11h 19m
Last Quarter, 36% of the Moon is Illuminated
Oct 9
Last Quarter
Oct 15
New
Oct 21
First Quarter
Oct 29
Full
Nov 6
Last Quarter

Hourly Weather History & Observations

Time (MDT) Temp. Windchill Dew Point Humidity Pressure Visibility Wind Dir Wind Speed Gust Speed Precip Events Conditions
12:15 AM 26.6 °F 18.2 °F 8.6 °F 47% 30.02 in 10.0 mi West 8.1 mph - N/A   Clear
12:35 AM 26.6 °F 20.0 °F 8.6 °F 47% 30.03 in 10.0 mi WNW 5.8 mph - N/A   Clear
12:55 AM 24.8 °F 17.9 °F 10.4 °F 54% 30.02 in 10.0 mi WNW 5.8 mph - N/A   Clear
1:15 AM 26.6 °F 19.1 °F 10.4 °F 51% 30.02 in 10.0 mi NNW 6.9 mph - N/A   Clear
1:35 AM 26.6 °F - 10.4 °F 51% 30.03 in 10.0 mi Calm Calm - N/A   Clear
1:55 AM 28.4 °F - 10.4 °F 47% 30.03 in 10.0 mi Calm Calm - N/A   Clear
2:15 AM 26.6 °F 19.1 °F 8.6 °F 47% 30.04 in 10.0 mi West 6.9 mph - N/A   Clear
2:35 AM 24.8 °F 16.9 °F 10.4 °F 54% 30.03 in 10.0 mi West 6.9 mph - N/A   Clear
2:55 AM 26.6 °F 20.0 °F 8.6 °F 47% 30.03 in 10.0 mi WNW 5.8 mph - N/A   Clear
3:15 AM 24.8 °F 19.1 °F 8.6 °F 50% 30.03 in 10.0 mi NW 4.6 mph - N/A   Clear
3:35 AM 23.0 °F 15.8 °F 8.6 °F 54% 30.03 in 10.0 mi WNW 5.8 mph - N/A   Clear
3:55 AM 24.8 °F 19.1 °F 10.4 °F 54% 30.03 in 10.0 mi WNW 4.6 mph - N/A   Clear
4:15 AM 26.6 °F 21.2 °F 8.6 °F 47% 30.03 in 10.0 mi WNW 4.6 mph - N/A   Clear
4:35 AM 23.0 °F 13.9 °F 10.4 °F 59% 30.04 in 10.0 mi WNW 8.1 mph - N/A   Clear
4:55 AM 24.8 °F 19.1 °F 8.6 °F 50% 30.04 in 10.0 mi West 4.6 mph - N/A   Clear
5:15 AM 24.8 °F 19.1 °F 8.6 °F 50% 30.05 in 10.0 mi WNW 4.6 mph - N/A   Clear
5:35 AM 23.0 °F - 8.6 °F 54% 30.05 in 10.0 mi Calm Calm - N/A   Clear
5:55 AM 23.0 °F - 8.6 °F 54% 30.05 in 10.0 mi Calm Calm - N/A   Clear
6:15 AM 21.2 °F 16.4 °F 8.6 °F 58% 30.06 in 10.0 mi WNW 3.5 mph - N/A   Clear
6:35 AM 21.2 °F 13.6 °F 8.6 °F 58% 30.06 in 10.0 mi WNW 5.8 mph - N/A   Clear
6:55 AM 21.2 °F - 8.6 °F 58% 30.07 in 10.0 mi Calm Calm - N/A   Clear
7:15 AM 21.2 °F 14.9 °F 8.6 °F 58% 30.07 in 10.0 mi West 4.6 mph - N/A   Clear
7:35 AM 21.2 °F 12.6 °F 8.6 °F 58% 30.07 in 10.0 mi WNW 6.9 mph - N/A   Clear
7:55 AM 23.0 °F 14.7 °F 10.4 °F 59% 30.08 in 10.0 mi West 6.9 mph - N/A   Clear
8:15 AM 26.6 °F - 10.4 °F 51% 30.09 in 10.0 mi Calm Calm - N/A   Clear
8:35 AM 28.4 °F 23.3 °F 10.4 °F 47% 30.09 in 10.0 mi NW 4.6 mph - N/A   Clear
8:55 AM 30.2 °F - 10.4 °F 44% 30.10 in 10.0 mi Calm Calm - N/A   Clear
9:15 AM 32.0 °F - 10.4 °F 41% 30.10 in 10.0 mi Calm Calm - N/A   Clear
9:35 AM 35.6 °F - 10.4 °F 35% 30.10 in 10.0 mi Calm Calm - N/A   Clear
9:55 AM 41.0 °F - 12.2 °F 31% 30.10 in 10.0 mi Calm Calm - N/A   Clear
10:15 AM 46.4 °F 41.5 °F 14.0 °F 27% 30.10 in 10.0 mi WNW 10.4 mph - N/A   Clear
10:35 AM 48.2 °F - 14.0 °F 25% 30.11 in 10.0 mi West 9.2 mph - N/A   Clear
10:55 AM 50.0 °F - 17.6 °F 28% 30.11 in 10.0 mi West 8.1 mph 16.1 mph N/A   Clear
11:15 AM 50.0 °F - 15.8 °F 26% 30.11 in 10.0 mi WNW 4.6 mph - N/A   Clear
11:35 AM 51.8 °F - 17.6 °F 26% 30.10 in 10.0 mi West 10.4 mph - N/A   Clear
11:55 AM 51.8 °F - 19.4 °F 28% 30.09 in 10.0 mi WNW 11.5 mph 17.3 mph N/A   Clear
12:15 PM 53.6 °F - 17.6 °F 24% 30.09 in 10.0 mi WNW 19.6 mph 27.6 mph N/A   Clear
12:35 PM 53.6 °F - 17.6 °F 24% 30.09 in 10.0 mi NW 19.6 mph 25.3 mph N/A   Clear
12:55 PM 53.6 °F - 17.6 °F 24% 30.09 in 10.0 mi West 19.6 mph 27.6 mph N/A   Clear
1:15 PM 55.4 °F - 19.4 °F 25% 30.09 in 10.0 mi WNW 17.3 mph 26.5 mph N/A   Clear
1:35 PM 55.4 °F - 19.4 °F 25% 30.09 in 10.0 mi WNW 16.1 mph 19.6 mph N/A   Clear
1:55 PM 55.4 °F - 19.4 °F 25% 30.09 in 10.0 mi WNW 13.8 mph 19.6 mph N/A   Clear
2:15 PM 55.4 °F - 19.4 °F 25% 30.08 in 10.0 mi WNW 12.7 mph 19.6 mph N/A   Clear
2:35 PM 57.2 °F - 19.4 °F 23% 30.08 in 10.0 mi West 17.3 mph 23.0 mph N/A   Clear
2:55 PM 59.0 °F - 19.4 °F 22% 30.08 in 10.0 mi West 15.0 mph 23.0 mph N/A   Clear
3:15 PM 57.2 °F - 17.6 °F 21% 30.08 in 10.0 mi WNW 16.1 mph 23.0 mph N/A   Clear
3:35 PM 57.2 °F - 17.6 °F 21% 30.08 in 10.0 mi West 8.1 mph 20.7 mph N/A   Clear
3:55 PM 57.2 °F - 17.6 °F 21% 30.08 in 10.0 mi West 11.5 mph 21.9 mph N/A   Clear
4:15 PM 57.2 °F - 17.6 °F 21% 30.09 in 10.0 mi WNW 15.0 mph 18.4 mph N/A   Clear
4:35 PM 57.2 °F - 17.6 °F 21% 30.09 in 10.0 mi West 12.7 mph 19.6 mph N/A   Clear
4:55 PM 57.2 °F - 17.6 °F 21% 30.09 in 10.0 mi West 13.8 mph 17.3 mph N/A   Clear
5:15 PM 55.4 °F - 17.6 °F 23% 30.09 in 10.0 mi NW 16.1 mph 20.7 mph N/A   Clear
5:35 PM 55.4 °F - 17.6 °F 23% 30.09 in 10.0 mi WNW 12.7 mph 17.3 mph N/A   Clear
5:55 PM 55.4 °F - 17.6 °F 23% 30.09 in 10.0 mi WNW 13.8 mph - N/A   Clear
6:15 PM 53.6 °F - 17.6 °F 24% 30.09 in 10.0 mi NW 10.4 mph - N/A   Clear
6:35 PM 50.0 °F - 17.6 °F 28% 30.11 in 10.0 mi NW 8.1 mph - N/A   Clear
6:55 PM 46.4 °F 43.5 °F 17.6 °F 32% 30.11 in 10.0 mi West 5.8 mph - N/A   Clear
7:15 PM 42.8 °F 38.0 °F 17.6 °F 36% 30.11 in 10.0 mi West 8.1 mph - N/A   Clear
7:35 PM 42.8 °F 39.3 °F 17.6 °F 36% 30.12 in 10.0 mi NNW 5.8 mph - N/A   Clear
7:55 PM 41.0 °F 38.0 °F 17.6 °F 39% 30.13 in 10.0 mi NW 4.6 mph - N/A   Clear
8:15 PM 37.4 °F 32.8 °F 17.6 °F 45% 30.13 in 10.0 mi WNW 5.8 mph - N/A   Clear
8:35 PM 37.4 °F 31.4 °F 17.6 °F 45% 30.14 in 10.0 mi West 8.1 mph - N/A   Clear
8:55 PM 35.6 °F 31.7 °F 17.6 °F 48% 30.15 in 10.0 mi NW 4.6 mph - N/A   Clear
9:15 PM 33.8 °F 29.6 °F 17.6 °F 52% 30.15 in 10.0 mi West 4.6 mph - N/A   Clear
9:35 PM 33.8 °F 28.6 °F 17.6 °F 52% 30.16 in 10.0 mi West 5.8 mph - N/A   Clear
9:55 PM 33.8 °F 27.7 °F 17.6 °F 52% 30.16 in 10.0 mi NW 6.9 mph - N/A   Clear
10:15 PM 33.8 °F 28.6 °F 17.6 °F 52% 30.16 in 10.0 mi SW 5.8 mph - N/A   Clear
10:35 PM 32.0 °F 27.5 °F 19.4 °F 60% 30.16 in 10.0 mi WNW 4.6 mph - N/A   Clear
10:55 PM 32.0 °F 25.6 °F 17.6 °F 55% 30.16 in 10.0 mi West 6.9 mph - N/A   Clear
11:15 PM 32.0 °F 25.6 °F 17.6 °F 55% 30.16 in 10.0 mi WNW 6.9 mph - N/A   Clear
11:35 PM 32.0 °F 28.7 °F 17.6 °F 55% 30.17 in 10.0 mi NNW 3.5 mph - N/A   Clear
11:55 PM 30.2 °F 25.4 °F 17.6 °F 60% 30.17 in 10.0 mi WNW 4.6 mph - N/A   Clear